TimeCST,TemperatureF,Dew PointF,Humidity,Sea Level PressureIn,VisibilityMPH,Wind Direction,Wind SpeedMPH,Gust SpeedMPH,PrecipitationIn,Events,Conditions,WindDirDegrees,DateUTC
12:53 AM,26.1,19.0,75,30.45,10.0,SW,5.8,-,N/A,,Clear,230,2012-11-13 06:53:00
1:53 AM,23.0,18.0,81,30.47,10.0,SSW,5.8,-,N/A,,Clear,210,2012-11-13 07:53:00
2:53 AM,27.0,19.9,75,30.46,10.0,Calm,Calm,-,N/A,,Clear,0,2012-11-13 08:53:00
3:53 AM,25.0,19.0,78,30.47,10.0,SW,5.8,-,N/A,,Clear,230,2012-11-13 09:53:00
4:53 AM,24.1,19.0,81,30.49,10.0,SSW,4.6,-,N/A,,Clear,210,2012-11-13 10:53:00
5:53 AM,26.6,19.4,74,30.47,10.0,Calm,Calm,-,N/A,,Clear,0,2012-11-13 11:53:00
6:36 AM,24.8,19.4,80,30.47,10.0,Variable,6.9,29.9,N/A,,Clear,0,2012-11-13 12:36:00
6:53 AM,21.9,18.0,85,30.51,10.0,Calm,Calm,-,N/A,,Clear,0,2012-11-13 12:53:00
7:53 AM,30.0,25.0,82,30.52,10.0,South,3.5,-,N/A,,Clear,180,2012-11-13 13:53:00
8:53 AM,37.0,25.0,62,30.52,10.0,SSE,3.5,-,N/A,,Clear,160,2012-11-13 14:53:00
9:53 AM,41.0,25.0,53,30.52,10.0,South,5.8,-,N/A,,Clear,170,2012-11-13 15:53:00
10:53 AM,45.0,23.0,42,30.51,10.0,SSW,6.9,-,N/A,,Clear,200,2012-11-13 16:53:00
11:53 AM,46.9,19.9,34,30.48,10.0,WSW,3.5,-,N/A,,Clear,250,2012-11-13 17:53:00
12:53 PM,48.9,21.0,33,30.45,10.0,Calm,Calm,-,N/A,,Clear,0,2012-11-13 18:53:00
1:14 PM,50.0,21.2,32,30.42,10.0,North,-9999.0,-,N/A,,Clear,0,2012-11-13 19:14:00
1:53 PM,50.0,21.0,32,30.43,10.0,Calm,Calm,-,N/A,,Clear,0,2012-11-13 19:53:00
2:53 PM,51.1,19.9,29,30.41,10.0,Calm,Calm,-,N/A,,Clear,0,2012-11-13 20:53:00
3:53 PM,48.0,25.0,41,30.42,10.0,Calm,Calm,-,N/A,,Clear,0,2012-11-13 21:53:00
4:53 PM,44.1,25.0,47,30.41,10.0,East,3.5,-,N/A,,Clear,100,2012-11-13 22:53:00
5:53 PM,41.0,23.0,49,30.41,10.0,ESE,6.9,-,N/A,,Clear,110,2012-11-13 23:53:00
6:53 PM,39.0,24.1,55,30.43,10.0,ESE,8.1,-,N/A,,Clear,110,2012-11-14 00:53:00
7:53 PM,39.0,21.9,50,30.43,10.0,ESE,9.2,-,N/A,,Clear,120,2012-11-14 01:53:00
8:53 PM,39.9,21.9,49,30.44,10.0,ESE,9.2,-,N/A,,Clear,120,2012-11-14 02:53:00
9:53 PM,37.9,21.0,51,30.43,10.0,ESE,10.4,-,N/A,,Clear,120,2012-11-14 03:53:00
10:53 PM,37.9,21.0,51,30.44,10.0,SE,8.1,-,N/A,,Clear,140,2012-11-14 04:53:00
11:53 PM,37.9,23.0,55,30.44,10.0,South,10.4,-,N/A,,Clear,170,2012-11-14 05:53:00